Location: Casilda
(33.0440°S, 61.1680°W)
Time: 14:31:30
(UTC-03:00)

ISS - Pass Details

Date: 19 June 2017
Orbit: 401 x 408 km, 51.6° (Epoch: 28 June)

Event Time Altitude Azimuth Distance (km) Brightness Sun altitude
Exits shadow 06:44:35 34° 204° (SSW) 689 -3.0 -16.8°
Maximum altitude 06:45:46 61° 138° (SE) 466 -3.5 -16.6°
Drops below altitude 10° 06:49:01 10° 56° (NE) 1,461 0.2 -15.9°
Sets 06:51:06 0° 52° (NE) 2,314 1.4 -15.5°
